Location: Newark
(42.0700°N, 88.0492°W)
Time: 02:23:31
(UTC+00:00)

Hubble Space Telescope - Visible Passes

Search period start: 24 October 2019 00:00
Search period end: 03 November 2019 00:00
Orbit: 536 x 540 km, 28.5° (Epoch: 23 October)

Date Brightness Start Highest point End Pass type
(mag) Time Alt. Az. Time Alt. Az. Time Alt. Az.
31 Oct 3.4 10:45:18 10° S 10:46:05 10° S 10:46:51 10° SSE visible
01 Nov 3.3 10:34:10 10° S 10:35:21 11° S 10:36:38 10° SSE visible
02 Nov 3.2 10:24:17 12° S 10:24:38 12° S 10:26:10 10° SSE visible
